When you browse on this site, cookies collect data to enhance your experience and personalize the content and advertising you see.
Visit our Privacy Policy to learn more. By continuing to use the site, you agree to this use of cookies and data.
  • In Hungary
  • List of Countries
  • For 7 days
  • Water Temperature
  • Satellite Maps
  • Weather Map
  • News
  • Weather Widgets
  • user-avatar
    Login

    Hourly Weather Wiciejow

    Today, 16 January, Wednesday

    Time Temperature Precipitation Wind Pressure Humidity
    00:00 -2°C° 0.9 mm 7 mps 733 mmHg 95%
    01:00 0°C° 0.9 mm 9 mps 732 mmHg 94%
    02:00 0°C° 0.1 mm 9 mps 733 mmHg 93%
    03:00 -1°C° 0.1 mm 8 mps 734 mmHg 91%
    04:00 -1°C° 0.1 mm 8 mps 734 mmHg 89%
    05:00 -1°C° 0.1 mm 7 mps 735 mmHg 89%
    06:00 -1°C° 0.1 mm 6 mps 736 mmHg 88%
    07:00 -1°C° 0.1 mm 5 mps 737 mmHg 88%
    08:00 -1°C° 0 mm 5 mps 738 mmHg 89%
    09:00 -1°C° 0 mm 4 mps 738 mmHg 91%
    10:00 0°C° 0 mm 3 mps 739 mmHg 93%
    11:00 0°C° 0.1 mm 3 mps 739 mmHg 95%
    12:00 0°C° 0.1 mm 3 mps 739 mmHg 97%
    13:00 +1°C° 0.1 mm 2 mps 739 mmHg 99%
    14:00 0°C° 0.1 mm 3 mps 739 mmHg 99%
    15:00 +1°C° 0.1 mm 3 mps 739 mmHg 98%
    16:00 0°C° 0.1 mm 4 mps 739 mmHg 98%
    17:00 0°C° 0.1 mm 4 mps 739 mmHg 97%
    18:00 0°C° 0.1 mm 4 mps 739 mmHg 97%
    19:00 0°C° 0.1 mm 5 mps 739 mmHg 97%
    20:00 0°C° 0 mm 5 mps 739 mmHg 96%
    21:00 0°C° 0 mm 5 mps 739 mmHg 96%
    22:00 0°C° 0 mm 5 mps 739 mmHg 95%
    23:00 0°C° 0 mm 5 mps 739 mmHg 94%

    Tomorrow, 17 January, Thursday

    Time Temperature Precipitation Wind Pressure Humidity
    00:00 0°C° 0 mm 5 mps 739 mmHg 94%
    01:00 0°C° 0 mm 5 mps 738 mmHg 93%
    02:00 -1°C° 0 mm 6 mps 738 mmHg 91%
    03:00 -2°C° 0 mm 6 mps 737 mmHg 90%
    04:00 -2°C° 0 mm 6 mps 736 mmHg 88%
    05:00 -2°C° 0 mm 6 mps 736 mmHg 85%
    06:00 -2°C° 0 mm 6 mps 735 mmHg 82%
    07:00 -2°C° 0 mm 7 mps 735 mmHg 79%
    08:00 -1°C° 0 mm 7 mps 735 mmHg 77%
    09:00 -1°C° 0 mm 7 mps 735 mmHg 76%
    10:00 -1°C° 0 mm 7 mps 735 mmHg 75%
    11:00 0°C° 0 mm 7 mps 735 mmHg 77%
    12:00 0°C° 0 mm 7 mps 735 mmHg 79%
    13:00 0°C° 0 mm 7 mps 735 mmHg 82%
    14:00 +1°C° 0 mm 6 mps 735 mmHg 84%
    15:00 +1°C° 0 mm 6 mps 735 mmHg 85%
    16:00 +1°C° 0 mm 6 mps 736 mmHg 87%
    17:00 +1°C° 0 mm 6 mps 735 mmHg 87%
    18:00 -1°C° 0 mm 6 mps 735 mmHg 88%
    19:00 -1°C° 0 mm 6 mps 735 mmHg 89%
    20:00 0°C° 0 mm 7 mps 735 mmHg 88%
    21:00 0°C° 0 mm 7 mps 735 mmHg 87%
    22:00 0°C° 0 mm 8 mps 735 mmHg 85%
    23:00 -1°C° 0.2 mm 7 mps 735 mmHg 82%

    Day after tomorrow, 18 January, Friday

    Time Temperature Precipitation Wind Pressure Humidity
    00:00 -1°C° 0.2 mm 6 mps 736 mmHg 79%
    01:00 -2°C° 0.2 mm 6 mps 736 mmHg 75%
    02:00 -2°C° 0 mm 6 mps 736 mmHg 74%
    03:00 -3°C° 0 mm 6 mps 737 mmHg 74%
    04:00 -3°C° 0 mm 7 mps 737 mmHg 73%
    05:00 -3°C° 0 mm 7 mps 738 mmHg 74%
    06:00 -5°C° 0 mm 8 mps 738 mmHg 76%
    07:00 -5°C° 0 mm 8 mps 739 mmHg 77%
    08:00 -4°C° 0.1 mm 7 mps 740 mmHg 76%
    09:00 -3°C° 0.1 mm 7 mps 741 mmHg 75%
    10:00 -3°C° 0.1 mm 7 mps 742 mmHg 73%
    11:00 -3°C° 0.1 mm 7 mps 743 mmHg 71%
    12:00 -3°C° 0.1 mm 7 mps 743 mmHg 69%
    13:00 -3°C° 0.1 mm 7 mps 744 mmHg 67%
    14:00 -4°C° 0 mm 6 mps 745 mmHg 68%
    15:00 -4°C° 0 mm 5 mps 745 mmHg 70%
    16:00 -4°C° 0 mm 4 mps 746 mmHg 71%
    17:00 -4°C° 0 mm 4 mps 747 mmHg 71%
    18:00 -4°C° 0 mm 4 mps 747 mmHg 71%
    19:00 -4°C° 0 mm 4 mps 748 mmHg 71%
    20:00 -4°C° 0 mm 4 mps 748 mmHg 73%
    21:00 -4°C° 0 mm 4 mps 748 mmHg 76%
    22:00 -4°C° 0 mm 4 mps 749 mmHg 78%
    23:00 -4°C° 0 mm 4 mps 749 mmHg 78%

    19 January, Saturday

    Time Temperature Precipitation Wind Pressure Humidity
    00:00 -4°C° 0 mm 4 mps 749 mmHg 78%
    01:00 -4°C° 0 mm 4 mps 749 mmHg 78%
    02:00 -4°C° 0 mm 4 mps 749 mmHg 77%
    03:00 -5°C° 0 mm 4 mps 749 mmHg 76%
    04:00 -5°C° 0 mm 4 mps 749 mmHg 75%
    05:00 -5°C° 0 mm 4 mps 749 mmHg 76%
    06:00 -5°C° 0 mm 4 mps 749 mmHg 76%
    07:00 -4°C° 0 mm 4 mps 749 mmHg 77%
    08:00 -4°C° 0 mm 4 mps 749 mmHg 76%
    09:00 -3°C° 0 mm 4 mps 749 mmHg 75%
    10:00 -4°C° 0 mm 5 mps 749 mmHg 74%
    11:00 -3°C° 0 mm 4 mps 749 mmHg 74%
    12:00 -2°C° 0 mm 4 mps 749 mmHg 73%
    13:00 -2°C° 0 mm 4 mps 749 mmHg 73%
    14:00 -1°C° 0 mm 3 mps 749 mmHg 76%
    15:00 -2°C° 0 mm 2 mps 749 mmHg 80%
    16:00 -2°C° 0 mm 2 mps 748 mmHg 83%
    17:00 -2°C° 0 mm 2 mps 749 mmHg 84%
    18:00 -2°C° 0 mm 2 mps 749 mmHg 85%
    19:00 0°C° 0 mm 1 mps 749 mmHg 86%
    20:00 0°C° 0 mm 1 mps 749 mmHg 86%
    21:00 0°C° 0 mm 1 mps 749 mmHg 86%
    22:00 -2°C° 0 mm 2 mps 749 mmHg 86%
    23:00 -3°C° 0 mm 2 mps 749 mmHg 86%

    20 January, Sunday

    Time Temperature Precipitation Wind Pressure Humidity
    00:00 -3°C° 0 mm 2 mps 749 mmHg 87%
    01:00 -3°C° 0 mm 2 mps 749 mmHg 87%
    02:00 -3°C° 0 mm 2 mps 749 mmHg 89%
    03:00 -3°C° 0 mm 2 mps 748 mmHg 90%
    04:00 -3°C° 0 mm 2 mps 748 mmHg 92%
    05:00 -3°C° 0 mm 2 mps 748 mmHg 91%
    06:00 -4°C° 0 mm 3 mps 748 mmHg 89%
    07:00 -4°C° 0 mm 3 mps 748 mmHg 88%
    08:00 -4°C° 0 mm 3 mps 749 mmHg 85%
    09:00 -3°C° 0 mm 4 mps 749 mmHg 83%
    10:00 -3°C° 0 mm 4 mps 749 mmHg 80%
    11:00 -3°C° 0 mm 4 mps 749 mmHg 75%
    12:00 -2°C° 0 mm 5 mps 749 mmHg 71%
    13:00 -2°C° 0 mm 5 mps 749 mmHg 67%
    14:00 -4°C° 0.1 mm 5 mps 749 mmHg 68%
    15:00 -3°C° 0.1 mm 4 mps 749 mmHg 69%
    16:00 -4°C° 0.1 mm 4 mps 750 mmHg 71%
    17:00 -4°C° 0.1 mm 4 mps 750 mmHg 72%
    18:00 -4°C° 0.1 mm 4 mps 750 mmHg 74%
    19:00 -4°C° 0.1 mm 4 mps 751 mmHg 75%
    20:00 -4°C° 0 mm 4 mps 751 mmHg 76%
    21:00 -5°C° 0 mm 4 mps 752 mmHg 77%
    22:00 -5°C° 0 mm 4 mps 752 mmHg 77%
    23:00 -5°C° 0 mm 4 mps 752 mmHg 78%

    21 January, Monday

    Time Temperature Precipitation Wind Pressure Humidity
    00:00 -5°C° 0 mm 4 mps 753 mmHg 80%
    01:00 -6°C° 0 mm 3 mps 753 mmHg 81%
    02:00 -6°C° 0 mm 3 mps 754 mmHg 82%
    03:00 -6°C° 0 mm 3 mps 754 mmHg 83%
    04:00 -6°C° 0 mm 3 mps 754 mmHg 83%
    05:00 -6°C° 0 mm 3 mps 755 mmHg 84%
    06:00 -6°C° 0 mm 3 mps 755 mmHg 85%
    07:00 -6°C° 0 mm 3 mps 755 mmHg 86%
    08:00 -6°C° 0 mm 3 mps 756 mmHg 84%
    09:00 -5°C° 0 mm 3 mps 756 mmHg 82%
    10:00 -5°C° 0 mm 3 mps 756 mmHg 80%
    11:00 -4°C° 0 mm 3 mps 757 mmHg 78%
    12:00 -4°C° 0 mm 3 mps 757 mmHg 75%
    13:00 -2°C° 0 mm 3 mps 757 mmHg 72%
    14:00 -4°C° 0 mm 3 mps 757 mmHg 74%
    15:00 -3°C° 0 mm 2 mps 757 mmHg 76%
    16:00 -4°C° 0 mm 2 mps 757 mmHg 78%
    17:00 -4°C° 0 mm 2 mps 757 mmHg 78%
    18:00 -4°C° 0 mm 2 mps 756 mmHg 79%
    19:00 -5°C° 0 mm 2 mps 756 mmHg 80%
    20:00 -5°C° 0 mm 2 mps 756 mmHg 80%
    21:00 -5°C° 0 mm 2 mps 756 mmHg 80%
    22:00 -5°C° 0 mm 2 mps 756 mmHg 79%
    23:00 -5°C° 0 mm 2 mps 756 mmHg 80%
    Show more